PST,Max TemperatureF,Mean TemperatureF,Min TemperatureF,Max Dew PointF,MeanDew PointF,Min DewpointF,Max Humidity, Mean Humidity, Min Humidity, Max Sea Level PressureIn, Mean Sea Level PressureIn, Min Sea Level PressureIn, Max VisibilityMiles, Mean VisibilityMiles, Min VisibilityMiles, Max Wind SpeedMPH, Mean Wind SpeedMPH, Max Gust SpeedMPH,PrecipitationIn, CloudCover, Events, WindDirDegrees
2012-12-1,55,48,42,43,40,36,96,77,49,29.75,29.61,29.39,10,8,4,13,4,,0.08,6,Rain,317
2012-12-2,55,50,43,44,39,34,97,76,47,29.91,29.52,29.28,10,9,2,24,5,33,0.31,5,Rain,301
2012-12-3,51,46,42,45,42,38,96,86,73,30.06,29.97,29.82,10,9,2,6,2,,0.01,6,Rain,352
2012-12-4,51,48,44,48,44,42,93,91,80,29.87,29.78,29.70,10,9,7,21,6,26,0.40,8,Rain,343
2012-12-5,51,43,35,43,35,31,89,72,52,30.25,30.15,29.91,10,10,9,20,10,22,0.01,4,Rain,300
2012-12-6,51,42,32,39,34,29,92,78,50,30.23,30.16,30.09,10,10,10,13,3,22,0.00,4,,345
2012-12-7,53,44,36,39,35,29,89,71,55,30.15,30.08,29.97,10,10,10,25,8,33,0.02,2,Rain,292
2012-12-8,48,42,36,35,33,29,79,68,52,30.35,30.24,30.16,10,10,10,22,9,29,0.00,6,,300
2012-12-9,50,44,39,43,37,35,89,81,71,30.43,30.34,30.25,10,10,10,16,2,23,0.00,7,,271
2012-12-10,55,52,43,43,40,35,74,64,51,30.32,30.26,30.10,10,10,10,28,11,36,0.00,1,,292
2012-12-11,48,41,34,40,36,31,93,81,64,30.07,29.76,29.61,10,10,10,16,4,23,0.00,4,Rain,325
2012-12-12,46,39,32,37,35,29,96,81,68,30.03,29.85,29.65,10,10,10,10,4,,0.00,5,Rain,269
2012-12-13,35,32,28,32,31,26,93,90,85,30.09,30.02,29.91,10,10,7,5,2,,0.00,6,,165
2012-12-14,45,39,30,36,32,26,96,85,68,29.99,29.88,29.84,10,8,4,14,1,16,0.00,6,Snow,267
2012-12-15,35,32,28,32,29,25,100,89,80,29.99,29.79,29.68,10,7,1,14,4,,0.08,7,Snow,80
2012-12-16,37,32,28,36,32,27,97,92,86,29.83,29.57,29.21,10,9,4,10,2,17,0.21,7,Rain,264
2012-12-17,48,40,32,37,34,27,100,82,59,29.98,29.59,29.20,10,9,4,24,8,33,0.11,5,Rain,281
2012-12-18,41,34,26,34,27,22,89,82,65,30.09,30.01,29.97,10,10,10,12,2,,0.01,2,,321
2012-12-19,39,32,26,33,29,23,89,80,68,30.08,29.91,29.74,10,10,10,14,4,,0.00,7,,62
2012-12-20,48,42,36,35,33,26,93,72,42,29.88,29.75,29.64,10,10,10,17,7,29,0.00,5,,349
2012-12-21,41,36,32,39,35,30,96,90,81,29.87,29.81,29.72,10,9,5,8,2,,0.07,8,Rain,15
2012-12-22,44,38,33,37,36,30,97,90,76,29.84,29.68,29.59,10,6,2,5,2,,0.00,6,,117
2012-12-23,37,35,33,34,33,30,100,91,82,29.86,29.75,29.62,10,6,1,12,1,,0.25,7,Rain-Snow,230
2012-12-24,46,38,30,35,32,28,92,80,63,30.19,30.09,29.87,10,10,10,17,6,24,0.00,1,,268
2012-12-25,35,32,30,32,31,28,100,91,87,30.13,29.90,29.82,10,6,1,13,4,,0.56,8,Rain-Snow,75
2012-12-26,37,34,30,34,32,29,100,92,81,30.03,29.89,29.82,10,5,0,6,0,,0.09,8,Fog-Rain-Snow,97
2012-12-27,45,36,28,34,28,25,96,85,65,30.23,30.12,30.04,10,9,2,7,2,,0.00,4,,142
2012-12-28,32,29,26,28,25,23,93,84,72,30.30,30.25,30.21,10,9,5,8,3,,0.00,7,,110
2012-12-29,33,32,30,29,28,24,96,88,70,30.30,30.26,30.17,10,7,1,6,0,,0.01,8,Snow,81
2012-12-30,37,29,21,29,25,17,93,84,70,30.41,30.37,30.29,10,10,7,9,1,,0.00,6,,128
2012-12-31,28,26,24,23,21,19,88,82,72,30.58,30.43,30.37,10,10,10,7,2,,0.00,8,,122